Port Heiden, AK

6:13 PM AKDT on September 25, 2017 (GMT -0800)
Port Heiden

Weather History for PAPH - July, 2013

Change the Weather History Date:

Friday, July 19, 2013

  Actual Average Record
Temperature  
Mean Temperature 55 °F -  
Max Temperature 59 °F 56 °F 73 °F (1999)
Min Temperature 51 °F 46 °F 30 °F (2007)
Degree Days  
Heating Degree Days 10    
Growing Degree Days 5 (Base 50)    
Moisture  
Dew Point 48 °F    
Average Humidity 78    
Maximum Humidity 82    
Minimum Humidity 68    
Precipitation  
Precipitation 0.00 in - - ()
Sea Level Pressure  
Sea Level Pressure 30.47 in    
Wind  
Wind Speed 8 mph (SW)    
Max Wind Speed 15 mph    
Max Gust Speed 20 mph    
Visibility 9 miles    
Events      
Averages and records for this station are not official NWS values.
T = Trace of Precipitation, MM = Missing Value Source: NWS Daily Summary

Daily Weather History Graph

Daily Weather History Graph

Search for Another Location

Airport or City:

Trip Planner

Search our weather history database for the weather conditions in past years. The results will help you decide how hot, cold, wet, or windy it might be!

Date:

Astronomy

Jul. 19, 2013 Rise Set
Actual Time 6:10 AM AKDT 11:10 PM AKDT
Civil Twilight 5:13 AM AKDT 12:06 AM AKDT
Nautical Twilight 3:12 AM AKDT 2:00 AM AKDT
Astronomical Twilight Sun does not set Sun does not set
Moon 8:22 PM AKDT (7/19) 3:06 AM AKDT (7/19)
Length of Visible Light 18h 53m
Length of Day
17h 00m
Waxing Gibbous, 88% of the Moon is Illuminated
Jul 19
Waxing Gibbous
Jul 22
Full
Jul 29
Last Quarter
Aug 6
New
Aug 14
First Quarter

Hourly Weather History & Observations

Time (AKDT) Temp. Dew Point Humidity Pressure Visibility Wind Dir Wind Speed Gust Speed Precip Events Conditions
12:16 AM 53.6 °F 46.4 °F 77% 30.43 in 10.0 mi WSW 6.9 mph - N/A   Overcast
12:36 AM 53.6 °F 46.4 °F 77% 30.44 in 10.0 mi WSW 9.2 mph - N/A   Overcast
12:56 AM 53.6 °F 46.4 °F 77% 30.44 in 10.0 mi SW 8.1 mph - N/A   Overcast
1:16 AM 53.6 °F 46.4 °F 77% 30.43 in 10.0 mi South 8.1 mph - N/A   Overcast
1:36 AM 53.6 °F 46.4 °F 77% 30.45 in 10.0 mi SW 8.1 mph - N/A   Overcast
1:56 AM 51.8 °F 46.4 °F 82% 30.45 in 2.5 mi SW 9.2 mph - N/A   Overcast
2:16 AM 51.8 °F 46.4 °F 82% 30.46 in 2.5 mi SW 9.2 mph - N/A   Overcast
2:36 AM 51.8 °F 46.4 °F 82% 30.46 in 4.0 mi SW 9.2 mph - N/A   Overcast
2:56 AM 51.8 °F 46.4 °F 82% 30.47 in 10.0 mi SW 10.4 mph - N/A   Overcast
3:16 AM 51.8 °F 46.4 °F 82% 30.46 in 10.0 mi SW 8.1 mph - N/A   Overcast
3:36 AM 51.8 °F 46.4 °F 82% 30.47 in 10.0 mi SW 9.2 mph - N/A   Overcast
3:56 AM 51.8 °F 46.4 °F 82% 30.46 in 10.0 mi SSW 8.1 mph - N/A   Overcast
4:16 AM 51.8 °F 46.4 °F 82% 30.46 in 10.0 mi SW 8.1 mph - N/A   Overcast
4:36 AM 51.8 °F 46.4 °F 82% 30.46 in 10.0 mi SSW 6.9 mph - N/A   Overcast
4:56 AM 51.8 °F 46.4 °F 82% 30.47 in 10.0 mi SW 6.9 mph - N/A   Overcast
5:16 AM 51.8 °F 46.4 °F 82% 30.47 in 10.0 mi WSW 6.9 mph - N/A   Overcast
5:36 AM 51.8 °F 46.4 °F 82% 30.47 in 10.0 mi WSW 8.1 mph - N/A   Overcast
5:56 AM 51.8 °F 44.6 °F 76% 30.47 in 8.0 mi WSW 5.8 mph - N/A   Overcast
6:16 AM 51.8 °F 44.6 °F 76% 30.47 in 8.0 mi SW 3.5 mph - N/A   Overcast
6:36 AM 51.8 °F 46.4 °F 82% 30.47 in 5.0 mi SSW 5.8 mph - N/A   Overcast
6:56 AM 51.8 °F 46.4 °F 82% 30.47 in 4.0 mi SSW 4.6 mph - N/A   Overcast
7:16 AM 51.8 °F 46.4 °F 82% 30.47 in 9.0 mi SW 4.6 mph - N/A   Overcast
7:36 AM 51.8 °F 46.4 °F 82% 30.48 in 7.0 mi SSW 6.9 mph - N/A   Overcast
7:56 AM 51.8 °F 46.4 °F 82% 30.47 in 10.0 mi South 5.8 mph - N/A   Overcast
8:16 AM 51.8 °F 46.4 °F 82% 30.48 in 10.0 mi South 5.8 mph - N/A   Overcast
8:36 AM 53.6 °F 46.4 °F 77% 30.48 in 10.0 mi SSW 6.9 mph - N/A   Overcast
8:56 AM 53.6 °F 48.2 °F 82% 30.47 in 5.0 mi SSW 5.8 mph - N/A   Overcast
9:16 AM 53.6 °F 48.2 °F 82% 30.48 in 7.0 mi SW 5.8 mph - N/A   Overcast
9:36 AM 53.6 °F 48.2 °F 82% 30.48 in 10.0 mi SW 5.8 mph - N/A   Overcast
9:56 AM 53.6 °F 48.2 °F 82% 30.48 in 7.0 mi South 6.9 mph - N/A   Overcast
10:16 AM 55.4 °F 48.2 °F 77% 30.48 in 10.0 mi South 6.9 mph - N/A   Overcast
10:36 AM 55.4 °F 48.2 °F 77% 30.47 in 10.0 mi SSW 6.9 mph - N/A   Overcast
10:56 AM 55.4 °F 48.2 °F 77% 30.48 in 10.0 mi SSW 6.9 mph - N/A   Overcast
11:16 AM 55.4 °F 48.2 °F 77% 30.48 in 10.0 mi SW 5.8 mph - N/A   Overcast
11:36 AM 57.2 °F 48.2 °F 72% 30.48 in 10.0 mi SSW 6.9 mph - N/A   Overcast
11:56 AM 57.2 °F 48.2 °F 72% 30.48 in 10.0 mi South 5.8 mph - N/A   Overcast
12:16 PM 57.2 °F 50.0 °F 77% 30.48 in 10.0 mi SW 5.8 mph - N/A   Overcast
12:36 PM 57.2 °F 48.2 °F 72% 30.48 in 10.0 mi WSW 5.8 mph - N/A   Overcast
12:56 PM 57.2 °F 50.0 °F 77% 30.48 in 9.0 mi WSW 5.8 mph - N/A   Overcast
1:16 PM 57.2 °F 50.0 °F 77% 30.48 in 8.0 mi West 6.9 mph - N/A   Overcast
1:36 PM 57.2 °F 50.0 °F 77% 30.48 in 3.0 mi West 4.6 mph - N/A   Overcast
1:56 PM 57.2 °F 50.0 °F 77% 30.48 in 9.0 mi Calm Calm - N/A   Overcast
2:16 PM 57.2 °F 51.8 °F 82% 30.47 in 9.0 mi SW 5.8 mph - N/A   Overcast
2:36 PM 57.2 °F 51.8 °F 82% 30.47 in 10.0 mi SSW 6.9 mph - N/A   Overcast
2:56 PM 59.0 °F 51.8 °F 77% 30.47 in 10.0 mi SW 6.9 mph - N/A   Overcast
3:16 PM 59.0 °F 51.8 °F 77% 30.47 in 10.0 mi WSW 9.2 mph - N/A   Overcast
3:36 PM 57.2 °F 50.0 °F 77% 30.47 in 10.0 mi West 10.4 mph - N/A   Overcast
3:56 PM 57.2 °F 50.0 °F 77% 30.48 in 10.0 mi West 10.4 mph - N/A   Overcast
4:16 PM 57.2 °F 51.8 °F 82% 30.48 in 10.0 mi WSW 11.5 mph - N/A   Overcast
4:36 PM 59.0 °F 51.8 °F 77% 30.48 in 10.0 mi West 10.4 mph - N/A   Overcast
4:56 PM 57.2 °F 50.0 °F 77% 30.48 in 10.0 mi WSW 11.5 mph - N/A   Overcast
5:16 PM 57.2 °F 50.0 °F 77% 30.47 in 10.0 mi WSW 11.5 mph - N/A   Overcast
5:36 PM 57.2 °F 48.2 °F 72% 30.48 in 10.0 mi West 12.7 mph 19.6 mph N/A   Overcast
5:56 PM 57.2 °F 48.2 °F 72% 30.48 in 10.0 mi West 13.8 mph 19.6 mph N/A   Overcast
6:16 PM 57.2 °F 48.2 °F 72% 30.48 in 10.0 mi West 15.0 mph - N/A   Overcast
6:36 PM 55.4 °F 48.2 °F 77% 30.48 in 10.0 mi WSW 13.8 mph 17.3 mph N/A   Overcast
6:56 PM 55.4 °F 48.2 °F 77% 30.48 in 10.0 mi WSW 12.7 mph 18.4 mph N/A   Overcast
7:16 PM 55.4 °F 46.4 °F 72% 30.48 in 10.0 mi WSW 12.7 mph - N/A   Overcast
7:36 PM 55.4 °F 48.2 °F 77% 30.47 in 10.0 mi WSW 15.0 mph 18.4 mph N/A   Overcast
7:56 PM 55.4 °F 48.2 °F 77% 30.47 in 10.0 mi WSW 13.8 mph - N/A   Overcast
8:16 PM 53.6 °F 46.4 °F 77% 30.47 in 10.0 mi West 12.7 mph - N/A   Overcast
8:36 PM 53.6 °F 46.4 °F 77% 30.47 in 10.0 mi WSW 11.5 mph - N/A   Overcast
8:56 PM 53.6 °F 46.4 °F 77% 30.47 in 10.0 mi West 9.2 mph 17.3 mph N/A   Overcast
9:16 PM 53.6 °F 46.4 °F 77% 30.47 in 10.0 mi WSW 10.4 mph - N/A   Overcast
9:36 PM 53.6 °F 46.4 °F 77% 30.47 in 10.0 mi WSW 10.4 mph - N/A   Overcast
9:56 PM 53.6 °F 46.4 °F 77% 30.47 in 10.0 mi West 11.5 mph - N/A   Overcast
10:16 PM 53.6 °F 46.4 °F 77% 30.47 in 10.0 mi WSW 11.5 mph - N/A   Overcast
10:36 PM 53.6 °F 46.4 °F 77% 30.48 in 10.0 mi WSW 9.2 mph - N/A   Overcast
10:56 PM 53.6 °F 46.4 °F 77% 30.48 in 10.0 mi WSW 11.5 mph - N/A   Overcast
11:16 PM 51.8 °F 46.4 °F 82% 30.49 in 9.0 mi WSW 11.5 mph - N/A   Overcast
11:36 PM 51.8 °F 46.4 °F 82% 30.49 in 3.0 mi WSW 9.2 mph - N/A   Overcast
11:56 PM 53.6 °F 46.4 °F 77% 30.49 in 9.0 mi WSW 10.4 mph - N/A   Overcast